Time,TemperatureF,DewpointF,PressureIn,WindDirection,WindDirectionDegrees,WindSpeedMPH,WindSpeedGustMPH,Humidity,HourlyPrecipIn,Conditions,Clouds,dailyrainin,SoftwareType,DateUTC
2013-06-29 00:13:00,78.4,76.0,29.68,SW,224,3.0,8.0,91,0.00,,,0.00,weatherlink.com 1.10,2013-06-29 04:13:00,
2013-06-29 00:28:00,78.3,76.0,29.68,SSW,205,0.0,11.0,91,0.00,,,0.00,weatherlink.com 1.10,2013-06-29 04:28:00,
2013-06-29 00:43:00,78.3,76.0,29.68,SSW,207,7.0,12.0,91,0.00,,,0.00,weatherlink.com 1.10,2013-06-29 04:43:00,
2013-06-29 00:58:00,78.5,76.0,29.68,SW,234,7.0,12.0,91,0.00,,,0.00,weatherlink.com 1.10,2013-06-29 04:58:00,
2013-06-29 01:13:00,78.6,76.0,29.67,SW,225,2.0,11.0,91,0.00,,,0.00,weatherlink.com 1.10,2013-06-29 05:13:00,
2013-06-29 01:28:00,78.7,76.0,29.67,WSW,238,5.0,15.0,91,0.00,,,0.00,weatherlink.com 1.10,2013-06-29 05:28:00,
2013-06-29 01:43:00,78.7,76.0,29.67,SSW,209,0.0,15.0,90,0.00,,,0.00,weatherlink.com 1.10,2013-06-29 05:43:00,
2013-06-29 01:58:00,78.7,76.0,29.67,SSW,196,4.0,9.0,90,0.00,,,0.00,weatherlink.com 1.10,2013-06-29 05:58:00,
2013-06-29 02:13:00,78.7,76.0,29.67,West,269,6.0,11.0,90,0.00,,,0.00,weatherlink.com 1.10,2013-06-29 06:13:00,
2013-06-29 02:29:00,78.6,76.0,29.67,SW,217,6.0,12.0,90,0.00,,,0.00,weatherlink.com 1.10,2013-06-29 06:29:00,
2013-06-29 02:44:00,78.5,75.0,29.66,SSW,196,7.0,13.0,90,0.00,,,0.00,weatherlink.com 1.10,2013-06-29 06:44:00,
2013-06-29 02:59:00,78.4,75.0,29.65,SSE,163,2.0,13.0,90,0.00,,,0.00,weatherlink.com 1.10,2013-06-29 06:59:00,
2013-06-29 03:14:00,78.4,75.0,29.65,SW,221,1.0,9.0,90,0.00,,,0.00,weatherlink.com 1.10,2013-06-29 07:14:00,
2013-06-29 03:29:00,78.5,75.0,29.65,SSW,209,4.0,14.0,90,0.00,,,0.00,weatherlink.com 1.10,2013-06-29 07:29:00,
2013-06-29 03:44:00,78.4,75.0,29.65,West,259,3.0,15.0,90,0.00,,,0.00,weatherlink.com 1.10,2013-06-29 07:44:00,
2013-06-29 03:59:00,78.4,75.0,29.65,SSW,205,5.0,13.0,90,0.00,,,0.00,weatherlink.com 1.10,2013-06-29 07:59:00,
2013-06-29 04:14:00,78.4,75.0,29.66,SW,229,0.0,14.0,90,0.00,,,0.00,weatherlink.com 1.10,2013-06-29 08:14:00,
2013-06-29 04:29:00,78.4,75.0,29.66,SSW,209,7.0,13.0,90,0.00,,,0.00,weatherlink.com 1.10,2013-06-29 08:29:00,
2013-06-29 04:44:00,78.3,75.0,29.67,SW,226,8.0,15.0,90,0.00,,,0.00,weatherlink.com 1.10,2013-06-29 08:44:00,
2013-06-29 04:59:00,78.2,75.0,29.67,South,177,5.0,15.0,90,0.00,,,0.00,weatherlink.com 1.10,2013-06-29 08:59:00,
2013-06-29 05:14:00,78.2,75.0,29.67,South,188,1.0,14.0,90,0.00,,,0.00,weatherlink.com 1.10,2013-06-29 09:14:00,
2013-06-29 05:29:00,78.1,75.0,29.68,SW,229,3.0,15.0,89,0.00,,,0.00,weatherlink.com 1.10,2013-06-29 09:29:00,
2013-06-29 05:44:00,78.0,75.0,29.68,SSW,198,2.0,9.0,89,0.00,,,0.00,weatherlink.com 1.10,2013-06-29 09:44:00,
2013-06-29 05:59:00,78.1,75.0,29.68,South,183,3.0,13.0,89,0.00,,,0.00,weatherlink.com 1.10,2013-06-29 09:59:00,
2013-06-29 06:14:00,78.0,75.0,29.68,SSW,211,7.0,14.0,89,0.00,,,0.00,weatherlink.com 1.10,2013-06-29 10:14:00,
2013-06-29 06:29:00,78.0,75.0,29.68,South,190,0.0,14.0,89,0.00,,,0.00,weatherlink.com 1.10,2013-06-29 10:29:00,
2013-06-29 06:44:00,77.9,75.0,29.68,SW,227,0.0,14.0,89,0.00,,,0.00,weatherlink.com 1.10,2013-06-29 10:44:00,
2013-06-29 06:59:00,78.0,75.0,29.69,WNW,285,7.0,12.0,89,0.00,,,0.00,weatherlink.com 1.10,2013-06-29 10:59:00,
2013-06-29 07:14:00,78.2,75.0,29.68,West,273,3.0,12.0,89,0.00,,,0.00,weatherlink.com 1.10,2013-06-29 11:14:00,
2013-06-29 07:29:00,78.8,75.0,29.68,SSW,211,0.0,6.0,89,0.00,,,0.00,weatherlink.com 1.10,2013-06-29 11:29:00,
2013-06-29 07:44:00,79.4,76.0,29.68,WNW,293,3.0,9.0,88,0.00,,,0.00,weatherlink.com 1.10,2013-06-29 11:44:00,
2013-06-29 07:59:00,80.1,76.0,29.68,WSW,239,0.0,8.0,88,0.00,,,0.00,weatherlink.com 1.10,2013-06-29 11:59:00,
2013-06-29 08:14:00,80.8,77.0,29.68,SSW,205,2.0,13.0,87,0.00,,,0.00,weatherlink.com 1.10,2013-06-29 12:14:00,
2013-06-29 08:29:00,81.0,77.0,29.68,SSW,192,7.0,15.0,86,0.00,,,0.00,weatherlink.com 1.10,2013-06-29 12:29:00,
2013-06-29 08:44:00,80.4,76.0,29.69,SSE,150,2.0,10.0,87,0.00,,,0.00,weatherlink.com 1.10,2013-06-29 12:44:00,
2013-06-29 08:59:00,80.4,76.0,29.70,SW,222,4.0,12.0,87,0.00,,,0.00,weatherlink.com 1.10,2013-06-29 12:59:00,
2013-06-29 09:14:00,80.5,76.0,29.70,SW,215,1.0,12.0,86,0.00,,,0.00,weatherlink.com 1.10,2013-06-29 13:14:00,
2013-06-29 09:29:00,80.7,76.0,29.70,SW,221,2.0,10.0,86,0.00,,,0.00,weatherlink.com 1.10,2013-06-29 13:29:00,
2013-06-29 09:44:00,80.3,76.0,29.70,SW,221,0.0,12.0,86,0.00,,,0.00,weatherlink.com 1.10,2013-06-29 13:44:00,
2013-06-29 09:59:00,80.7,77.0,29.70,South,186,1.0,5.0,87,0.00,,,0.00,weatherlink.com 1.10,2013-06-29 13:59:00,
2013-06-29 10:14:00,81.9,77.0,29.70,South,173,0.0,6.0,85,0.00,,,0.00,weatherlink.com 1.10,2013-06-29 14:14:00,
2013-06-29 10:29:00,82.8,77.0,29.70,SSW,200,1.0,5.0,83,0.00,,,0.00,weatherlink.com 1.10,2013-06-29 14:29:00,
2013-06-29 10:44:00,83.3,77.0,29.70,SSW,202,0.0,2.0,82,0.00,,,0.00,weatherlink.com 1.10,2013-06-29 14:44:00,
2013-06-29 10:59:00,84.1,77.0,29.70,West,277,0.0,7.0,79,0.00,,,0.00,weatherlink.com 1.10,2013-06-29 14:59:00,
2013-06-29 11:14:00,83.3,77.0,29.70,West,272,2.0,6.0,80,0.00,,,0.00,weatherlink.com 1.10,2013-06-29 15:14:00,
2013-06-29 11:29:00,82.0,75.0,29.70,SW,232,1.0,7.0,80,0.00,,,0.00,weatherlink.com 1.10,2013-06-29 15:29:00,
2013-06-29 11:44:00,81.0,75.0,29.71,WSW,250,0.0,5.0,82,0.00,,,0.00,weatherlink.com 1.10,2013-06-29 15:44:00,
2013-06-29 11:59:00,79.7,75.0,29.71,WSW,254,4.0,6.0,85,0.01,,,0.01,weatherlink.com 1.10,2013-06-29 15:59:00,
2013-06-29 12:14:00,78.5,74.0,29.72,South,186,4.0,4.0,87,0.01,,,0.01,weatherlink.com 1.10,2013-06-29 16:14:00,
2013-06-29 12:29:00,78.4,75.0,29.72,South,188,0.0,7.0,88,0.01,,,0.01,weatherlink.com 1.10,2013-06-29 16:29:00,
2013-06-29 12:44:00,78.5,75.0,29.72,SSW,213,6.0,9.0,89,0.01,,,0.01,weatherlink.com 1.10,2013-06-29 16:44:00,
2013-06-29 12:59:00,79.0,75.0,29.72,SW,224,0.0,7.0,88,0.00,,,0.01,weatherlink.com 1.10,2013-06-29 16:59:00,
2013-06-29 13:14:00,79.2,75.0,29.72,SSW,204,5.0,11.0,87,0.00,,,0.01,weatherlink.com 1.10,2013-06-29 17:14:00,
2013-06-29 13:29:00,78.8,75.0,29.73,SW,225,4.0,12.0,87,0.00,,,0.01,weatherlink.com 1.10,2013-06-29 17:29:00,
2013-06-29 13:44:00,78.8,75.0,29.73,SW,221,2.0,7.0,88,0.00,,,0.01,weatherlink.com 1.10,2013-06-29 17:44:00,
2013-06-29 13:59:00,79.4,75.0,29.73,SSW,203,3.0,7.0,87,0.00,,,0.01,weatherlink.com 1.10,2013-06-29 17:59:00,
2013-06-29 14:14:00,80.0,76.0,29.73,SW,215,3.0,11.0,86,0.00,,,0.01,weatherlink.com 1.10,2013-06-29 18:14:00,
2013-06-29 14:29:00,80.2,76.0,29.73,South,177,6.0,10.0,86,0.00,,,0.01,weatherlink.com 1.10,2013-06-29 18:29:00,
2013-06-29 14:44:00,80.4,76.0,29.73,ESE,117,3.0,14.0,85,0.00,,,0.01,weatherlink.com 1.10,2013-06-29 18:44:00,
2013-06-29 14:59:00,81.6,77.0,29.72,SSW,202,3.0,13.0,85,0.00,,,0.01,weatherlink.com 1.10,2013-06-29 18:59:00,
2013-06-29 15:14:00,81.9,77.0,29.72,SW,223,3.0,11.0,85,0.00,,,0.01,weatherlink.com 1.10,2013-06-29 19:14:00,
2013-06-29 15:29:00,81.5,76.0,29.73,SSW,207,0.0,16.0,84,0.00,,,0.01,weatherlink.com 1.10,2013-06-29 19:29:00,
2013-06-29 15:44:00,81.3,76.0,29.73,South,180,3.0,11.0,84,0.00,,,0.01,weatherlink.com 1.10,2013-06-29 19:44:00,
2013-06-29 15:59:00,81.4,76.0,29.73,WSW,242,0.0,13.0,84,0.00,,,0.01,weatherlink.com 1.10,2013-06-29 19:59:00,
2013-06-29 16:14:00,81.5,77.0,29.72,SW,226,0.0,15.0,85,0.00,,,0.01,weatherlink.com 1.10,2013-06-29 20:14:00,
2013-06-29 16:29:00,81.4,77.0,29.73,SSW,198,5.0,17.0,86,0.00,,,0.01,weatherlink.com 1.10,2013-06-29 20:29:00,
2013-06-29 16:44:00,81.8,77.0,29.73,South,182,8.0,18.0,84,0.00,,,0.01,weatherlink.com 1.10,2013-06-29 20:44:00,
2013-06-29 16:59:00,82.0,77.0,29.72,West,262,9.0,19.0,84,0.00,,,0.01,weatherlink.com 1.10,2013-06-29 20:59:00,
2013-06-29 17:14:00,81.5,76.0,29.72,SW,217,2.0,16.0,84,0.00,,,0.01,weatherlink.com 1.10,2013-06-29 21:14:00,
2013-06-29 17:29:00,80.6,76.0,29.73,SW,217,3.0,13.0,85,0.00,,,0.01,weatherlink.com 1.10,2013-06-29 21:29:00,
2013-06-29 17:44:00,79.9,75.0,29.73,SW,219,4.0,17.0,86,0.00,,,0.01,weatherlink.com 1.10,2013-06-29 21:44:00,
2013-06-29 18:00:00,79.4,75.0,29.73,SSW,209,8.0,13.0,86,0.00,,,0.01,weatherlink.com 1.10,2013-06-29 22:00:00,
2013-06-29 18:15:00,79.3,75.0,29.72,South,186,5.0,14.0,87,0.00,,,0.01,weatherlink.com 1.10,2013-06-29 22:15:00,
2013-06-29 18:30:00,79.1,75.0,29.72,SW,220,4.0,16.0,88,0.00,,,0.01,weatherlink.com 1.10,2013-06-29 22:30:00,
2013-06-29 18:45:00,78.7,75.0,29.73,SW,226,1.0,13.0,88,0.00,,,0.01,weatherlink.com 1.10,2013-06-29 22:45:00,
2013-06-29 19:00:00,78.1,75.0,29.73,South,190,5.0,11.0,89,0.00,,,0.01,weatherlink.com 1.10,2013-06-29 23:00:00,
2013-06-29 19:15:00,78.0,75.0,29.73,SW,232,3.0,15.0,90,0.00,,,0.01,weatherlink.com 1.10,2013-06-29 23:15:00,
2013-06-29 19:30:00,77.8,74.0,29.72,SSW,203,0.0,19.0,89,0.00,,,0.01,weatherlink.com 1.10,2013-06-29 23:30:00,
2013-06-29 19:45:00,77.5,74.0,29.73,SSW,211,6.0,14.0,90,0.00,,,0.01,weatherlink.com 1.10,2013-06-29 23:45:00,
2013-06-29 20:00:00,77.2,74.0,29.74,SW,215,5.0,13.0,90,0.00,,,0.01,weatherlink.com 1.10,2013-06-30 00:00:00,
2013-06-29 20:15:00,77.1,74.0,29.75,SSW,198,2.0,13.0,90,0.00,,,0.01,weatherlink.com 1.10,2013-06-30 00:15:00,
2013-06-29 20:30:00,77.0,74.0,29.75,SSW,211,5.0,13.0,90,0.00,,,0.01,weatherlink.com 1.10,2013-06-30 00:30:00,
2013-06-29 20:45:00,77.0,74.0,29.76,SSW,192,5.0,14.0,90,0.01,,,0.02,weatherlink.com 1.10,2013-06-30 00:45:00,
2013-06-29 21:00:00,76.9,74.0,29.76,WSW,244,0.0,9.0,90,0.01,,,0.02,weatherlink.com 1.10,2013-06-30 01:00:00,
2013-06-29 21:15:00,76.5,74.0,29.76,South,174,2.0,12.0,90,0.02,,,0.03,weatherlink.com 1.10,2013-06-30 01:15:00,
2013-06-29 21:30:00,76.3,73.0,29.76,SW,216,2.0,12.0,90,0.03,,,0.04,weatherlink.com 1.10,2013-06-30 01:30:00,
2013-06-29 21:45:00,76.3,74.0,29.76,SW,215,7.0,8.0,91,0.03,,,0.05,weatherlink.com 1.10,2013-06-30 01:45:00,
2013-06-29 22:00:00,76.4,74.0,29.76,South,183,3.0,11.0,91,0.03,,,0.05,weatherlink.com 1.10,2013-06-30 02:00:00,
2013-06-29 22:15:00,76.6,74.0,29.78,South,188,0.0,10.0,91,0.03,,,0.06,weatherlink.com 1.10,2013-06-30 02:15:00,
2013-06-29 22:30:00,76.9,74.0,29.78,SSW,200,2.0,11.0,91,0.02,,,0.06,weatherlink.com 1.10,2013-06-30 02:30:00,
2013-06-29 22:45:00,77.0,74.0,29.79,SSW,210,0.0,9.0,91,0.01,,,0.06,weatherlink.com 1.10,2013-06-30 02:45:00,
2013-06-29 23:00:00,77.0,74.0,29.79,SSW,202,7.0,7.0,91,0.01,,,0.06,weatherlink.com 1.10,2013-06-30 03:00:00,
2013-06-29 23:15:00,77.1,74.0,29.79,SW,220,3.0,10.0,91,0.00,,,0.06,weatherlink.com 1.10,2013-06-30 03:15:00,
2013-06-29 23:33:00,76.7,74.0,29.80,SSW,208,11.0,18.0,91,0.00,,,0.06,weatherlink.com 1.10,2013-06-30 03:33:00,
2013-06-29 23:45:00,76.1,73.0,29.81,SW,236,4.0,15.0,91,0.00,,,0.06,weatherlink.com 1.10,2013-06-30 03:45:00,